User: anonymous   Login
Location: Jetmore Oil Field
(38.1181°N, 99.9337°W)
Time: 20:12:56
(UTC+00:00)
Language:

ISS - Orbit

View from above orbital plane
View from above orbital plane
View from above satellite
View from above satellite

Ground track
Ground track

The orbit data is extracted from the following two-line orbital elements,

1 25544U 98067A   21210.74202796  .00002234  00000-0  48879-4 0  9994
2 25544  51.6435 132.2868 0001402 211.5955 188.8008 15.48872655295191
Epoch (UTC): 29 July 2021 17:48:31
Eccentricity: 0.0001402
inclination: 51.6435°
perigee height: 419 km
apogee height: 421 km
right ascension of ascending node: 132.2868°
argument of perigee: 211.5955°
revolutions per day: 15.48872655
mean anomaly at epoch: 188.8008°
orbit number at epoch: 29519

The dashed part of the orbit path shows where the satellite is in the earth's shadow,  

DLR